Location: Góry Miechowskie
(50.3599°N, 20.1803°E)
Time: 00:57:17
(UTC+00:00)

Vanguard 2 - Pass Details

Date: 13 September 2024
Orbit: 552 x 2910 km, 32.9° (Epoch: 09 October)

Event Time Altitude Azimuth Distance (km) Brightness Sun altitude
Rises 08:34:58 0° 258° (WSW) 4,892 11.4 36.8°
Reaches altitude 10° 08:39:50 10° 238° (WSW) 4,360 11.4 37.3°
Maximum altitude 08:46:03 15° 207° (SSW) 4,411 11.9 37.9°
Drops below altitude 10° 08:53:26 10° 178° (S) 5,318 12.7 38.5°
Sets 09:00:45 0° 160° (SSE) 6,625 13.2 39.1°
